date,time,DOY,Ta_1_1_1,Pa_1_1_1,RH_1_1_1,LWin_1_1_1,LWout_1_1_1,SWin_1_1_1,SWout_1_1_1,PPFD_1_1_1,MWS_1_1_1,WD_1_1_1,SWC_1_1_1,Ts_1_1_1
[yyyy-mm-dd],[HH:MM],[ddd.ddd],[K],[Pa],[%],[W+1m-2],[W+1m-2],[W+1m-2],[W+1m-2],[µmol+1m-2s-1],[m+1s-1],[deg],[m+3m-3],[K]
2018-01-18,00:30,18.020,266.89999999999998,94303.300000000003,47.964000000000006,283.09033333333338,230.95966666666666,0.49199999999999994,-2.0450000000000008,-6.00000000000000099E-003,9.5233333333333317,206.07733333333331,0.25999999999999984,273.17699999999996
2018-01-18,01:00,18.041,266.59866666666670,94290.233333333337,50.177000000000000,281.99899999999997,230.17266666666666,0.49133333333333340,-2.0856666666666666,1.03333333333333333E-002,8.6633333333333322,204.46633333333332,0.25999999999999984,273.17466666666661
2018-01-18,01:30,18.062,266.39899999999989,94267.766666666663,51.954333333333345,281.20833333333331,229.13366666666670,0.55133333333333334,-2.1796666666666669,-3.00000000000000006E-003,7.8399999999999999,204.55533333333332,0.25999999999999984,273.17333333333335
2018-01-18,02:00,18.083,266.19033333333340,94267.500000000000,53.465666666666671,280.48800000000006,229.07200000000000,0.53566666666666651,-2.1220000000000003,0.0000000000000000,8.4833333333333361,208.54500000000002,0.25999999999999984,273.17899999999997
2018-01-18,02:30,18.104,265.88233333333335,94272.466666666660,55.585000000000008,279.52199999999999,227.34200000000004,0.53466666666666662,-2.2050000000000001,-3.00000000000000006E-003,7.9466666666666663,213.67766666666665,0.25999999999999984,273.17699999999996
2018-01-18,03:00,18.124,265.67466666666667,94263.699999999997,57.444333333333333,278.66000000000003,227.27000000000004,0.61966666666666670,-2.1776666666666666,-6.00000000000000012E-003,7.5499999999999989,211.41233333333332,0.25999999999999984,273.17333333333329
2018-01-18,03:30,18.145,265.45466666666658,94265.500000000000,59.185999999999993,278.04566666666665,226.97299999999998,0.54799999999999993,-2.1143333333333332,0.0000000000000000,8.2800000000000029,212.11133333333333,0.25999999999999984,273.17600000000004
2018-01-18,04:00,18.166,265.24766666666676,94266.100000000006,60.913999999999987,277.18266666666665,226.88000000000002,0.60166666666666679,-2.1753333333333336,-5.00000000000000184E-003,7.2333333333333343,215.13466666666670,0.25999999999999984,273.17800000000000
2018-01-18,04:30,18.187,265.15199999999993,94271.266666666663,62.495333333333335,276.84133333333335,227.59500000000006,0.66899999999999993,-2.0619999999999998,-3.33333333333333160E-004,6.9599999999999991,214.24400000000000,0.25999999999999984,273.17599999999999
2018-01-18,05:00,18.208,265.07666666666677,94244.433333333334,64.238666666666674,276.51599999999991,226.16499999999996,0.63733333333333320,-2.1743333333333328,-8.00000000000000017E-003,6.5033333333333330,212.83433333333335,0.25999999999999984,273.18266666666665
2018-01-18,05:30,18.229,264.97666666666669,94225.766666666663,65.884666666666661,276.09299999999996,222.51566666666665,0.66466666666666685,-2.2376666666666671,-2.00000000000000004E-003,7.2933333333333339,216.02166666666665,0.25999999999999984,273.18266666666665
2018-01-18,06:00,18.249,264.89799999999985,94215.800000000003,67.602333333333320,275.89599999999990,220.95633333333336,0.66933333333333345,-2.3076666666666670,-2.00000000000000004E-003,7.4800000000000013,214.41099999999997,0.25999999999999984,273.17833333333334
2018-01-18,06:30,18.270,264.98900000000009,94222.800000000003,68.684666666666686,276.39066666666662,221.43800000000007,0.68466666666666653,-2.1686666666666672,2.00000000000000004E-003,8.2400000000000002,213.46766666666670,0.25999999999999984,273.17833333333334
2018-01-18,07:00,18.291,264.92766666666660,94230.600000000006,69.982666666666674,276.12500000000000,221.44233333333332,0.62533333333333341,-2.2933333333333339,-5.66666666666666707E-003,7.3433333333333337,214.94399999999999,0.25999999999999984,273.17866666666669
2018-01-18,07:30,18.312,264.71800000000007,94232.300000000003,71.657666666666671,275.13166666666672,220.12466666666666,0.68133333333333324,-2.4196666666666666,-7.00000000000000015E-003,6.4566666666666670,214.85566666666668,0.25999999999999984,273.18433333333331
2018-01-18,08:00,18.333,264.59133333333347,94224.766666666663,73.302333333333337,274.46566666666666,219.56766666666670,0.79866666666666652,-2.4333333333333331,-5.33333333333333316E-003,5.9466666666666663,211.07733333333331,0.25999999999999984,273.18333333333339
2018-01-18,08:30,18.354,264.52233333333345,94195.033333333340,74.755666666666656,274.16600000000000,221.20400000000001,0.83233333333333326,-2.2703333333333333,1.00000000000000019E-002,5.7133333333333338,210.39966666666666,0.25999999999999984,273.18099999999993
2018-01-18,09:00,18.374,264.54700000000014,94167.899999999994,75.837333333333333,274.60799999999995,222.60833333333338,0.75866666666666649,-2.1513333333333340,-1.33333333333333307E-003,6.4500000000000011,210.14466666666667,0.25999999999999984,273.17966666666672
2018-01-18,09:30,18.395,264.70233333333340,94142.266666666663,76.535333333333341,275.25866666666667,224.98966666666669,0.73166666666666658,-2.0243333333333338,2.00000000000000004E-003,6.5166666666666657,213.23300000000000,0.25999999999999984,273.18266666666665
2018-01-18,10:00,18.416,264.80333333333328,94102.199999999997,77.421999999999997,275.85399999999998,228.86133333333331,0.67233333333333334,-1.8763333333333330,-1.10000000000000028E-002,6.3200000000000021,205.76666666666668,0.25999999999999984,273.18400000000003
2018-01-18,10:30,18.437,264.81466666666665,94049.533333333340,78.321333333333342,277.04300000000001,247.85566666666671,0.50566666666666660,-1.1323333333333330,-7.66666666666666712E-003,6.1566666666666654,205.76633333333334,0.25999999999999984,273.18533333333329
2018-01-18,11:00,18.458,265.19999999999999,94022.866666666669,78.454333333333338,278.88666666666666,252.57133333333331,0.48966666666666681,-0.93733333333333335,2.00000000000000004E-003,6.0000000000000000,208.24433333333334,0.25999999999999984,273.18500000000000
2018-01-18,11:30,18.479,265.53666666666680,94017.966666666660,78.356333333333339,280.64400000000006,262.36866666666668,0.37099999999999989,-0.63433333333333342,-3.33333333333333355E-003,5.7233333333333336,206.52199999999999,0.25999999999999984,273.18599999999998
2018-01-18,12:00,18.499,265.90633333333346,93992.266666666663,77.969666666666654,282.60566666666665,269.92066666666665,0.31900000000000001,-0.30633333333333340,1.00000000000000002E-003,6.4499999999999984,201.48900000000000,0.25999999999999984,273.18699999999995
2018-01-18,12:30,18.520,266.39133333333342,93962.833333333328,77.269999999999996,283.65133333333335,256.42266666666666,0.37166666666666653,-0.98433333333333317,-1.00000000000000002E-003,6.7100000000000000,197.28833333333333,0.25999999999999984,273.18766666666670
2018-01-18,13:00,18.541,266.66200000000003,93928.466666666660,76.785333333333327,283.74200000000002,247.67166666666660,0.49666666666666670,-1.5930000000000000,1.10000000000000011E-002,5.4066666666666672,193.06666666666666,0.25999999999999984,273.18466666666660
2018-01-18,13:30,18.562,266.61766666666671,93912.666666666672,76.665333333333336,282.49166666666662,231.07766666666663,0.76099999999999979,-1.6410000000000005,1.3626666666666665,5.9733333333333336,190.37866666666667,0.25999999999999984,273.18900000000002
2018-01-18,14:00,18.583,266.60133333333334,93891.333333333328,75.722999999999985,283.41166666666675,252.03999999999999,2.8533333333333331,10.139333333333331,21.754000000000001,5.4166666666666670,189.74400000000000,0.25999999999999984,273.18433333333331
2018-01-18,14:30,18.604,267.08533333333332,93877.466666666660,73.512333333333316,287.84066666666672,278.92399999999998,7.9246666666666670,35.049999999999983,57.500666666666675,6.2300000000000013,187.64500000000001,0.25999999999999984,273.18399999999997
2018-01-18,15:00,18.624,267.65566666666666,93857.199999999997,71.641666666666666,290.69766666666669,289.46033333333332,5.7533333333333330,27.225999999999996,56.735333333333315,4.9433333333333334,189.95600000000002,0.25999999999999984,273.18166666666662
2018-01-18,15:30,18.645,268.08433333333335,93818.699999999997,70.023666666666657,292.49000000000001,286.30500000000006,9.5030000000000019,44.855666666666671,94.364999999999981,6.3733333333333322,180.25566666666666,0.25999999999999984,273.18233333333330
2018-01-18,16:00,18.666,268.48866666666680,93854.066666666666,68.527999999999992,294.18066666666658,285.67966666666666,9.7140000000000022,45.684666666666665,98.609000000000009,5.5533333333333310,200.59933333333331,0.25999999999999984,273.18699999999990
2018-01-18,16:30,18.687,268.66099999999994,93877.399999999994,67.766333333333307,295.22999999999990,286.90433333333345,11.521666666666667,54.726333333333322,120.36766666666669,5.1566666666666663,203.56599999999997,0.25999999999999984,273.18766666666664
2018-01-18,17:00,18.708,269.10533333333331,93878.033333333340,67.199666666666673,297.26066666666662,293.21999999999991,12.568999999999999,60.034666666666652,133.21466666666666,6.1833333333333327,211.07666666666668,0.25999999999999984,273.18599999999998
2018-01-18,17:30,18.729,269.19900000000001,93850.633333333331,68.051333333333346,298.60333333333335,297.84266666666673,16.538666666666668,81.242999999999967,176.42466666666667,6.0966666666666685,208.14433333333332,0.25999999999999984,273.18599999999992
2018-01-18,18:00,18.749,269.41333333333347,93827.466666666660,67.939999999999998,300.30933333333331,294.53066666666666,27.974333333333334,138.68599999999998,288.51200000000000,5.6699999999999999,212.04366666666664,0.25999999999999984,273.18799999999993
2018-01-18,18:30,18.770,269.96333333333342,93802.166666666672,67.295999999999992,302.63333333333333,297.94866666666672,25.922333333333331,127.48966666666665,266.60733333333332,4.4666666666666668,223.34500000000000,0.25999999999999984,273.18533333333329
2018-01-18,19:00,18.791,270.67633333333339,93774.800000000003,66.398000000000010,305.48899999999998,300.72999999999996,26.325333333333333,128.87866666666665,270.94966666666664,4.5433333333333348,223.76733333333334,0.25999999999999984,273.18866666666668
2018-01-18,19:30,18.812,271.09100000000001,93756.733333333337,66.107333333333330,307.72133333333335,298.38733333333329,32.815333333333342,163.24400000000003,333.00633333333332,4.6633333333333322,226.32266666666666,0.25999999999999984,273.18799999999999
2018-01-18,20:00,18.833,271.26000000000016,93737.500000000000,66.200999999999993,308.23333333333346,300.63433333333330,26.419666666666664,131.30566666666667,267.77633333333330,4.9033333333333333,224.05600000000001,0.25999999999999984,273.18799999999993
2018-01-18,20:30,18.854,271.28233333333327,93750.000000000000,66.252666666666656,307.46666666666664,300.63699999999994,17.154000000000000,84.002999999999986,175.34966666666668,4.4933333333333341,227.22133333333332,0.25999999999999984,273.18733333333330
2018-01-18,21:00,18.874,271.52566666666678,93774.666666666672,66.317333333333337,307.95433333333335,300.36100000000005,12.973666666666665,63.201000000000015,132.14933333333337,4.8400000000000007,224.95500000000001,0.25999999999999984,273.19033333333329
2018-01-18,21:30,18.895,271.56000000000017,93792.233333333337,66.636666666666670,307.63633333333325,299.22066666666677,7.4786666666666672,36.171666666666667,77.214333333333329,4.6499999999999995,226.48966666666669,0.25999999999999984,273.19033333333329
2018-01-18,22:00,18.916,271.62466666666660,93799.833333333328,67.134999999999977,307.39400000000006,298.52833333333348,4.0036666666666667,19.297999999999998,43.138000000000012,3.4333333333333340,229.80000000000001,0.25999999999999984,273.19099999999992
2018-01-18,22:30,18.937,271.73566666666682,93829.133333333331,67.796333333333322,307.55366666666669,298.10599999999999,2.3286666666666660,10.444666666666665,22.710999999999995,3.6500000000000004,238.37766666666667,0.25999999999999984,273.18866666666668
2018-01-18,23:00,18.958,271.85433333333322,93857.866666666669,68.194666666666663,307.57133333333326,296.50366666666667,0.61566666666666658,1.3429999999999995,4.3233333333333341,3.2133333333333334,247.42166666666665,0.25999999999999984,273.19433333333330
2018-01-18,23:30,18.979,271.73066666666676,93859.033333333340,68.752333333333326,303.97400000000005,262.25766666666669,0.71200000000000008,-2.5393333333333334,0.13600000000000001,2.2533333333333330,272.14500000000004,0.25999999999999984,273.19499999999988
2018-01-19,00:00,19.000,271.41966666666661,93863.333333333328,69.919333333333327,299.75699999999995,246.72866666666661,1.4250000000000003,-3.0923333333333338,1.23333333333333350E-002,2.1100000000000003,285.44400000000002,0.25999999999999984,273.18900000000008
